Station: Macquarie Island  

  Atmospheric Gas Attenuation - ITU Rec 676-11   ----------------- dB/100km -----------------
Date Time Temp RH % AH g/m3 Dew Point Wind Direction Speed kph Gust kph Barometer mB Rainfall Since 9am 24GHz 47GHz 76GHz 122GHz 134GHz 241GHz
06/09 03:50 2.2 67 3.78 -3.3 30 44 998.6 0.2 9.7 20.8 25.1 65.2 46.0 153.3
06/09 03:40 1.9 67 3.7 -3.6 28 46 998.5 0.2 9.5 20.7 24.8 64.6 45.2 150.4
06/09 03:30 1.8 70 3.84 -3.1 28 44 998.6 0.2 9.8 20.9 25.4 66.1 47.0 156.8
06/09 03:20 1.6 75 4.06 -2.3 30 43 998.4 0.2 10.3 21.3 26.3 68.5 49.9 166.9
06/09 03:10 1.3 75 3.98 -2.6 24 39 998.3 0.2 10.1 21.3 26.1 68.0 49.1 164.0
06/09 03:00 2 74 4.12 -2.1 33 54 998.2 0.2 10.4 21.3 26.4 68.8 50.4 168.8
06/09 02:50 2.1 66 3.7 -3.6 33 50 997.9 0.2 9.5 20.6 24.8 64.4 45.0 149.9
06/09 02:40 2.2 65 3.67 -3.7 32 50 997.7 0.2 9.4 20.6 24.6 64.0 44.6 148.4
06/09 02:30 2 68 3.78 -3.3 33 48 997.7 0.2 9.7 20.8 25.1 65.3 46.1 153.6
06/09 02:20 2.1 68 3.81 -3.2 32 50 997.6 0.2 9.7 20.8 25.2 65.5 46.4 154.7
06/09 02:10 2.1 68 3.81 -3.2 35 52 997.4 0.2 9.7 20.8 25.2 65.5 46.4 154.7
06/09 02:00 2.1 66 3.7 -3.6 37 48 997.4 0.2 9.5 20.6 24.7 64.4 45.0 149.9
06/09 01:50 2.2 67 3.78 -3.3 35 48 997.4 0.2 9.7 20.7 25.0 65.1 46.0 153.2
06/09 01:40 2.1 66 3.7 -3.6 37 50 997.3 0.2 9.5 20.6 24.7 64.3 45.0 149.8
06/09 01:30 2 66 3.67 -3.7 37 50 997.2 0.2 9.4 20.6 24.7 64.1 44.7 148.7
06/09 01:20 1.9 71 3.92 -2.8 35 54 997.1 0.2 10.0 21.0 25.6 66.7 47.9 159.9
06/09 01:10 1.9 70 3.87 -3 35 46 997.1 0.2 9.9 20.9 25.4 66.2 47.2 157.7
06/09 01:00 2.1 68 3.81 -3.2 39 48 997 0.2 9.7 20.8 25.1 65.4 46.4 154.6
06/09 00:50 2 69 3.84 -3.1 37 50 996.7 0.2 9.8 20.8 25.3 65.8 46.8 156.1
06/09 00:40 2 73 4.06 -2.3 33 46 996.6 0.2 10.3 21.2 26.1 68.0 49.6 165.8
06/09 00:30 1.9 72 3.98 -2.6 37 46 996.5 0.2 10.1 21.1 25.8 67.3 48.6 162.5
06/09 00:20 2 69 3.84 -3.1 37 44 996.3 0.2 9.8 20.8 25.3 65.8 46.8 156.0
06/09 00:10 1.9 68 3.76 -3.4 33 50 996.1 0.2 9.6 20.7 25.0 65.0 45.8 152.7
06/09 00:00 1.7 67 3.65 -3.8 35 52 996 0.2 9.4 20.6 24.6 64.1 44.6 148.2
05/09 23:50 1.9 67 3.7 -3.6 37 52 996 0.2 9.5 20.6 24.8 64.4 45.1 150.0
05/09 23:40 1.9 70 3.87 -3 33 50 995.7 0.2 9.9 20.9 25.4 66.1 47.2 157.5
05/09 23:30 1.7 72 3.92 -2.8 37 48 995.6 0.2 10.0 21.0 25.6 66.8 47.9 160.1
05/09 23:20 1.9 73 4.03 -2.4 33 56 995.5 0.2 10.2 21.1 26.0 67.7 49.2 164.5
05/09 23:10 1.9 72 3.98 -2.6 35 46 995.3 0.2 10.1 21.0 25.8 67.2 48.5 162.3
05/09 23:00 1.9 72 3.98 -2.6 37 48 995 0.2 10.1 21.0 25.8 67.2 48.5 162.2
05/09 22:50 1.9 70 3.87 -3 35 48 994.9 0.2 9.9 20.8 25.4 66.0 47.1 157.4
05/09 22:40 1.8 72 3.95 -2.7 35 59 994.6 0.2 10.0 21.0 25.7 66.9 48.2 161.1
05/09 22:30 1.8 68 3.73 -3.5 37 50 994.6 0.2 9.6 20.6 24.8 64.7 45.4 151.4
05/09 22:20 1.8 68 3.73 -3.5 39 54 994.3 0.2 9.6 20.6 24.8 64.7 45.4 151.3
05/09 22:10 1.9 70 3.87 -3 39 61 994.2 0.2 9.9 20.8 25.3 66.0 47.1 157.3
05/09 22:00 1.8 74 4.06 -2.3 35 50 994.1 0.2 10.3 21.1 26.1 68.0 49.6 165.9
05/09 21:50 1.9 70 3.87 -3 39 57 993.9 0.2 9.9 20.8 25.3 66.0 47.1 157.2
05/09 21:40 2 72 4.01 -2.5 39 56 993.6 0.2 10.2 21.0 25.8 67.3 48.8 163.2
05/09 21:30 1.8 70 3.84 -3.1 37 57 993.5 0.2 9.8 20.8 25.2 65.7 46.8 156.0
05/09 21:20 1.7 73 3.98 -2.6 30 54 993.3 0.2 10.1 21.0 25.8 67.2 48.6 162.4
05/09 21:10 1.7 73 3.98 -2.6 30 59 993.1 0.2 10.1 21.0 25.8 67.2 48.6 162.4
05/09 21:00 1.7 74 4.03 -2.4 35 59 992.9 0.2 10.2 21.1 26.0 67.7 49.2 164.6
05/09 20:50 1.6 75 4.06 -2.3 35 56 992.7 0.2 10.3 21.1 26.1 68.1 49.6 166.1
05/09 20:40 1.3 84 4.46 -1.1 37 50 992.5 0.2 11.2 21.8 27.7 72.5 55.0 184.8
05/09 20:30 0.7 83 4.23 -1.8 41 65 992.4 0.2 10.7 21.6 27.0 70.6 52.4 175.6
05/09 20:20 1.7 79 4.31 -1.5 37 46 992.1 0.2 10.8 21.5 27.0 70.5 52.7 177.0
05/09 20:10 1.7 74 4.03 -2.4 41 61 992.1 0.2 10.2 21.0 25.9 67.6 49.2 164.4
05/09 20:00 1.7 74 4.03 -2.4 43 57 991.9 0.2 10.2 21.0 25.9 67.6 49.1 164.4
05/09 19:50 1.8 72 3.95 -2.7 43 54 991.6 0.2 10.0 20.9 25.6 66.7 48.1 160.6
05/09 19:40 1.7 76 4.14 -2.1 39 54 991.5 0.2 10.5 21.2 26.3 68.7 50.5 169.3
05/09 19:30 1.7 77 4.2 -1.9 39 56 991.4 0.2 10.6 21.3 26.5 69.3 51.3 171.9
05/09 19:20 1.8 73 4.01 -2.5 39 65 991.1 0.2 10.2 20.9 25.8 67.2 48.8 163.2
05/09 19:10 1.6 73 3.95 -2.7 33 57 990.9 0.2 10.0 20.9 25.6 66.8 48.1 160.9
05/09 19:00 1.7 72 3.92 -2.8 41 67 990.7 0.2 10.0 20.8 25.5 66.4 47.7 159.4
05/09 18:50 1.6 72 3.9 -2.9 41 65 990.7 0.2 9.9 20.8 25.4 66.3 47.5 158.7
05/09 18:40 1.7 73 3.98 -2.6 41 61 990.5 0.2 10.1 20.9 25.7 67.0 48.4 162.0
05/09 18:30 1.6 78 4.22 -1.8 43 63 990.1 0.2 10.6 21.3 26.6 69.5 51.5 172.8
05/09 18:20 1.7 80 4.36 -1.4 43 57 990 0.2 10.9 21.5 27.1 70.8 53.3 178.9
05/09 18:10 1.3 81 4.3 -1.6 35 59 989.7 0.2 10.8 21.5 27.0 70.5 52.7 177.0
05/09 18:00 1.4 78 4.17 -2 39 57 989.3 0.2 10.5 21.2 26.5 69.1 51.0 170.9
05/09 17:50 1.8 76 4.17 -2 44 61 989.3 0.2 10.5 21.1 26.3 68.7 50.7 170.0
05/09 17:40 1.8 73 4.01 -2.5 48 61 989 0.2 10.2 20.9 25.7 67.1 48.7 162.9
05/09 17:30 1.5 82 4.41 -1.2 41 72 988.7 0.2 11.0 21.5 27.3 71.4 54.0 181.4
05/09 17:20 1 86 4.47 -1.1 44 65 988.6 0.2 11.2 21.8 27.7 72.5 55.1 185.3
05/09 17:10 1.7 80 4.36 -1.4 44 69 988.3 0.2 10.9 21.4 27.0 70.7 53.2 178.6
05/09 17:00 1.7 78 4.25 -1.7 43 61 988.2 0.2 10.7 21.2 26.6 69.5 51.8 173.7
05/09 16:50 1.7 79 4.31 -1.5 44 65 988 0.2 10.8 21.3 26.8 70.1 52.5 176.3
05/09 16:40 2 75 4.17 -2 48 61 987.8 0.2 10.5 21.0 26.2 68.4 50.5 169.4
05/09 16:30 1.9 78 4.31 -1.5 46 67 987.7 0.2 10.8 21.3 26.8 69.9 52.4 175.8
05/09 16:20 2.1 76 4.26 -1.7 44 61 987.4 0.2 10.7 21.1 26.5 69.2 51.6 173.1
05/09 16:10 1.9 80 4.42 -1.2 46 63 987.3 0.2 11.1 21.4 27.2 71.0 53.8 180.7
05/09 16:00 2.1 77 4.31 -1.5 44 69 986.9 0.2 10.8 21.2 26.7 69.7 52.2 175.3
05/09 15:50 1.9 74 4.09 -2.2 46 65 987 0.2 10.3 20.9 25.9 67.6 49.5 165.9
05/09 15:40 2.1 73 4.09 -2.2 46 59 986.6 0.2 10.3 20.8 25.8 67.4 49.4 165.4
05/09 15:30 1.8 76 4.17 -2 48 76 986.4 0.2 10.5 21.0 26.2 68.5 50.6 169.6
05/09 15:20 2.1 74 4.14 -2 44 69 986.3 0.2 10.4 20.9 26.0 67.9 50.0 167.6
05/09 15:10 2.1 76 4.26 -1.7 44 69 986.1 0.2 10.7 21.1 26.4 69.1 51.5 172.9
05/09 15:00 1.8 75 4.12 -2.1 43 70 986 0.2 10.4 20.9 26.0 67.9 49.9 167.3
05/09 14:50 2.1 74 4.14 -2 44 69 985.7 0.2 10.4 20.9 26.0 67.9 50.0 167.5
05/09 14:40 2.6 70 4.06 -2.3 48 67 985.6 0.2 10.2 20.6 25.5 66.6 48.7 162.9
05/09 14:30 2.3 71 4.03 -2.4 46 67 985.3 0.2 10.2 20.6 25.5 66.5 48.5 162.2
05/09 14:20 2.4 70 4 -2.5 48 74 985.1 0.2 10.1 20.6 25.3 66.1 48.0 160.6
05/09 14:10 2.5 70 4.03 -2.4 46 65 985.1 0.2 10.2 20.6 25.4 66.3 48.3 161.8
05/09 14:00 2.6 73 4.23 -1.7 44 67 984.8 0.2 10.6 20.9 26.1 68.3 50.7 170.3
05/09 13:50 2.3 71 4.03 -2.4 44 69 984.7 0.2 10.2 20.6 25.5 66.5 48.4 162.1
05/09 13:40 2.5 70 4.03 -2.4 50 69 984.6 0.2 10.2 20.6 25.4 66.3 48.3 161.7
05/09 13:30 2.6 70 4.06 -2.3 52 78 984.4 0.2 10.2 20.6 25.5 66.5 48.6 162.8
05/09 13:20 2.2 72 4.06 -2.3 52 72 984 0.2 10.3 20.7 25.6 66.8 48.8 163.5
05/09 13:10 2.4 71 4.06 -2.3 52 69 983.9 0.2 10.3 20.6 25.5 66.6 48.7 163.1
05/09 13:00 2.4 67 3.83 -3.1 54 83 983.9 0.2 9.8 20.3 24.6 64.3 45.9 153.1
05/09 12:50 2.6 72 4.17 -1.9 48 74 983.2 0.2 10.5 20.7 25.8 67.5 49.9 167.4
05/09 12:40 2.5 70 4.03 -2.4 54 76 983.2 0.2 10.2 20.5 25.3 66.2 48.2 161.5
05/09 12:30 2.2 72 4.06 -2.3 52 78 983.3 0.2 10.3 20.6 25.6 66.8 48.8 163.4
05/09 12:20 2.4 71 4.06 -2.3 54 72 983.2 0.2 10.3 20.6 25.5 66.6 48.7 163.0
05/09 12:10 2.7 69 4.02 -2.4 52 76 982.8 0.2 10.2 20.4 25.2 65.9 48.0 160.6
05/09 12:00 2.6 68 3.94 -2.7 52 76 982.7 0.2 10.0 20.3 25.0 65.2 47.0 157.3
05/09 11:50 2.7 72 4.2 -1.8 52 82 982.4 0.2 10.5 20.7 25.9 67.7 50.2 168.4
05/09 11:40 2.6 72 4.17 -1.9 56 74 982.4 0.2 10.5 20.7 25.8 67.5 49.9 167.3
05/09 11:30 2.9 73 4.32 -1.5 52 74 982 0.2 10.8 20.8 26.3 68.7 51.5 173.2
05/09 11:20 3.1 74 4.43 -1.1 50 72 981.7 0.2 11.0 20.9 26.6 69.6 52.8 177.5

Last Refresh: 06-Sep-2026 03:30:23

Bureau of Meteorology